Location: Saluda
(35.2377°N, 82.3468°W)
Time: 04:13:48
(UTC+00:00)

Vanguard 2 Rocket - Pass Details

Date: 08 October 2022
Orbit: 555 x 3321 km, 32.9° (Epoch: 05 December)

Event Time Altitude Azimuth Distance (km) Brightness Sun altitude
Rises 03:05:00 0° 248° (WSW) 7,272 11.8 -47.7°
Reaches altitude 10° 03:10:09 10° 247° (WSW) 6,127 11.3 -48.6°
Enters shadow 03:22:46 48° 236° (SW) 3,293 9.5 -50.6°
Maximum altitude 03:28:34 73° 168° (SSE) 2,468 - -51.4°
Drops below altitude 10° 03:39:34 10° 86° (E) 3,889 - -53.0°
Sets 03:42:06 0° 84° (E) 4,583 - -53.4°
